Charleston, WV

2:00 AM EST on February 13, 2016 (GMT -0500)
Yeager Airport

Weather History for KCRW - March, 2013

Change the Weather History Date:

Wednesday, March 27, 2013

  Actual Average Record
Temperature  
Mean Temperature 38 °F 50 °F  
Max Temperature 43 °F 61 °F 90 °F (1921)
Min Temperature 33 °F 39 °F 16 °F (1955)
Degree Days  
Heating Degree Days 27 16  
Month to date heating degree days 697 540  
Since 1 July heating degree days 4080 3994  
Cooling Degree Days 0 0  
Month to date cooling degree days 0 0  
Year to date cooling degree days 0 0  
Moisture  
Dew Point 25 °F    
Average Humidity 60    
Maximum Humidity 75    
Minimum Humidity 45    
Precipitation  
Precipitation T in 0.12 in 1.84 in (1994)
Month to date precipitation 3.00 3.44  
Year to date precipitation 9.03 9.63  
Snow  
Snow T in - - ()
Month to date snowfall 2.5  
Since 1 September snowfall 25.3  
Snow Depth 0.00 in    
Sea Level Pressure  
Sea Level Pressure 30.24 in    
Wind  
Wind Speed 8 mph (West)    
Max Wind Speed 16 mph    
Max Gust Speed 23 mph    
Visibility 10 miles    
Events      
T = Trace of Precipitation, MM = Missing Value Source: NWS Daily Summary

Daily Weather History Graph

Daily Weather History Graph

Search for Another Location

Airport or City:

Trip Planner

Search our weather history database for the weather conditions in past years. The results will help you decide how hot, cold, wet, or windy it might be!

Date:

Astronomy

Mar. 27, 2013 Rise Set
Actual Time 7:18 AM EDT 7:45 PM EDT
Civil Twilight 6:52 AM EDT 8:11 PM EDT
Nautical Twilight 6:21 AM EDT 8:42 PM EDT
Astronomical Twilight 5:49 AM EDT 9:14 PM EDT
Moon 8:26 PM EDT (3/27) 7:09 AM EDT (3/27)
Length of Visible Light 13h 19m
Length of Day
12h 26m
Full, 100% of the Moon is Illuminated
Mar 27
Full
Apr 3
Last Quarter
Apr 10
New
Apr 18
First Quarter
Apr 25
Full

Hourly Weather History & Observations

Time (EDT) Temp. Windchill Dew Point Humidity Pressure Visibility Wind Dir Wind Speed Gust Speed Precip Events Conditions
12:54 AM 35.1 °F 29.3 °F 27.0 °F 72% 30.20 in 10.0 mi West 6.9 mph - N/A   Overcast
1:54 AM 35.1 °F 27.9 °F 27.0 °F 72% 30.20 in 10.0 mi WSW 9.2 mph - 0.00 in   Overcast
2:54 AM 34.0 °F 26.0 °F 27.0 °F 75% 30.20 in 10.0 mi WSW 10.4 mph - N/A   Overcast
3:01 AM 33.8 °F 27.0 °F 26.6 °F 75% 30.18 in 10.0 mi West 8.1 mph - N/A   Overcast
3:54 AM 34.0 °F 27.2 °F 26.1 °F 73% 30.19 in 10.0 mi West 8.1 mph - N/A   Overcast
4:54 AM 33.1 °F 26.9 °F 26.1 °F 75% 30.20 in 10.0 mi West 6.9 mph - N/A   Overcast
5:54 AM 33.1 °F 25.5 °F 26.1 °F 75% 30.21 in 10.0 mi WSW 9.2 mph - N/A   Overcast
6:54 AM 33.1 °F 25.5 °F 25.0 °F 72% 30.22 in 10.0 mi West 9.2 mph - N/A   Overcast
7:12 AM 33.8 °F 27.0 °F 24.8 °F 70% 30.21 in 10.0 mi WSW 8.1 mph - N/A   Overcast
7:32 AM 33.8 °F 26.4 °F 24.8 °F 70% 30.21 in 10.0 mi WSW 9.2 mph - N/A   Overcast
7:54 AM 33.1 °F 26.1 °F 25.0 °F 72% 30.24 in 10.0 mi WSW 8.1 mph - N/A   Overcast
8:09 AM 33.8 °F 28.6 °F 24.8 °F 70% 30.22 in 10.0 mi WSW 5.8 mph - N/A   Overcast
8:54 AM 33.1 °F 25.5 °F 24.1 °F 70% 30.26 in 10.0 mi West 9.2 mph - N/A   Overcast
9:30 AM 33.8 °F 25.3 °F 24.8 °F 70% 30.24 in 10.0 mi West 11.5 mph 18.4 mph N/A   Overcast
9:54 AM 35.1 °F 29.3 °F 25.0 °F 67% 30.26 in 10.0 mi West 6.9 mph 16.1 mph N/A   Mostly Cloudy
10:36 AM 35.6 °F 28.6 °F 24.8 °F 65% 30.24 in 10.0 mi West 9.2 mph 20.7 mph N/A   Mostly Cloudy
10:54 AM 36.0 °F 28.0 °F 25.0 °F 64% 30.26 in 10.0 mi WNW 11.5 mph - N/A   Overcast
11:54 AM 36.0 °F 29.0 °F 25.0 °F 64% 30.27 in 10.0 mi West 9.2 mph - N/A   Overcast
12:54 PM 37.9 °F 32.1 °F 26.1 °F 62% 30.27 in 10.0 mi West 8.1 mph 16.1 mph N/A   Overcast
1:46 PM 39.2 °F 33.0 °F 26.6 °F 61% 30.24 in 10.0 mi West 9.2 mph - N/A   Overcast
1:54 PM 39.9 °F 33.9 °F 27.0 °F 60% 30.26 in 9.0 mi West 9.2 mph - 0.00 in   Overcast
2:54 PM 39.9 °F 34.5 °F 27.0 °F 60% 30.25 in 9.0 mi WNW 8.1 mph 19.6 mph 0.00 in   Unknown
3:54 PM 41.0 °F 35.8 °F 26.1 °F 55% 30.23 in 10.0 mi WNW 8.1 mph 19.6 mph 0.00 in   Overcast
4:54 PM 42.1 °F 34.9 °F 24.1 °F 49% 30.23 in 10.0 mi West 13.8 mph 23.0 mph N/A   Overcast
5:54 PM 41.0 °F 33.9 °F 21.9 °F 47% 30.25 in 10.0 mi WNW 12.7 mph 23.0 mph N/A   Overcast
6:54 PM 41.0 °F 35.8 °F 23.0 °F 49% 30.25 in 10.0 mi NW 8.1 mph - N/A   Overcast
7:54 PM 39.9 °F 34.5 °F 24.1 °F 53% 30.26 in 10.0 mi West 8.1 mph - N/A   Overcast
8:54 PM 39.0 °F 36.8 °F 24.1 °F 55% 30.27 in 10.0 mi West 3.5 mph - N/A   Overcast
9:54 PM 37.9 °F 33.5 °F 25.0 °F 60% 30.28 in 10.0 mi West 5.8 mph - N/A   Overcast
10:54 PM 37.9 °F 34.4 °F 27.0 °F 65% 30.28 in 10.0 mi WSW 4.6 mph - N/A   Overcast
11:54 PM 37.0 °F 31.0 °F 27.0 °F 67% 30.28 in 10.0 mi WSW 8.1 mph - 0.00 in   Overcast